Weather History for Kansas City International, MO

Change the Weather History Date:

Tuesday, December 18, 2012

  Actual Average Record
Temperature  
Mean Temperature 46 °F 30 °F  
Max Temperature 55 °F 39 °F 64 °F (1976)
Min Temperature 36 °F 22 °F -15 °F (1983)
Degree Days  
Heating Degree Days 19 35  
Month to date heating degree days 389 578  
Since 1 July heating degree days 1336 1580  
Cooling Degree Days 0 0  
Month to date cooling degree days 0 0  
Year to date cooling degree days 1839 1360  
Moisture  
Dew Point 31 °F    
Average Humidity 63    
Maximum Humidity 82    
Minimum Humidity 44    
Precipitation  
Precipitation 0.00 in 0.05 in 1.69 in (1895)
Month to date precipitation 0.44 0.99  
Year to date precipitation 21.38 38.32  
Snow  
Snow 0.00 in 0.10 in 3.50 in (1989)
Month to date snowfall 0.0 2.6  
Since 1 July snowfall T 4.0  
Snow Depth 0.00 in    
Sea Level Pressure  
Sea Level Pressure 29.73 in    
Wind  
Wind Speed 11 mph (SW)    
Max Wind Speed 23 mph    
Max Gust Speed 30 mph    
Visibility 10 miles    
Events      
T = Trace of Precipitation, MM = Missing Value Source: NWS Daily Summary

Daily Weather History Graph

Daily Weather History Graph

Search for Another Location

Airport:

Trip Planner

Search our weather history database for the weather conditions in past years. The results will help you decide how hot, cold, wet, or windy it might be!

Date:

Astronomy

Dec. 18, 2012 Rise Set
Actual Time 7:33 AM CST 4:57 PM CST
Civil Twilight 7:03 AM CST 5:28 PM CST
Nautical Twilight 6:29 AM CST 6:01 PM CST
Astronomical Twilight 5:57 AM CST 6:34 PM CST
Moon 11:15 AM CST (12/18) 11:22 PM CST (12/18)
Length of Visible Light 10h 24m
Length of Day
9h 24m
Waxing Crescent, 35% of the Moon is Illuminated
Dec 18
Waxing Crescent
Dec 19
First Quarter
Dec 28
Full
Jan 4
Last Quarter
Jan 11
New

Hourly Weather History & Observations

Time (CST) Temp. Windchill Dew Point Humidity Pressure Visibility Wind Dir Wind Speed Gust Speed Precip Events Conditions
12:53 AM 37.0 °F 29.3 °F 30.0 °F 76% 29.65 in 10.0 mi South 11.5 mph - N/A   Clear
1:53 AM 41.0 °F 34.7 °F 32.0 °F 70% 29.63 in 10.0 mi South 10.4 mph - N/A   Overcast
2:53 AM 44.1 °F 36.5 °F 34.0 °F 68% 29.61 in 10.0 mi South 17.3 mph - N/A   Overcast
3:53 AM 43.0 °F 34.2 °F 33.1 °F 68% 29.59 in 10.0 mi SSW 20.7 mph - N/A   Partly Cloudy
4:53 AM 41.0 °F 32.5 °F 32.0 °F 70% 29.59 in 10.0 mi SSW 17.3 mph 25.3 mph N/A   Clear
5:53 AM 39.9 °F 31.4 °F 32.0 °F 73% 29.59 in 10.0 mi SSW 16.1 mph - N/A   Clear
6:53 AM 39.0 °F 31.0 °F 30.9 °F 73% 29.62 in 10.0 mi SSW 13.8 mph - N/A   Clear
7:53 AM 39.0 °F 31.4 °F 30.9 °F 73% 29.64 in 10.0 mi SW 12.7 mph - N/A   Partly Cloudy
8:53 AM 41.0 °F 34.3 °F 32.0 °F 70% 29.68 in 10.0 mi SW 11.5 mph - N/A   Partly Cloudy
9:53 AM 45.0 °F 38.9 °F 32.0 °F 60% 29.70 in 10.0 mi WSW 12.7 mph - N/A   Partly Cloudy
10:53 AM 52.0 °F - 32.0 °F 47% 29.71 in 10.0 mi West 10.4 mph 20.7 mph N/A   Clear
11:53 AM 52.0 °F - 30.9 °F 45% 29.71 in 10.0 mi WNW 15.0 mph 20.7 mph N/A   Partly Cloudy
12:53 PM 54.0 °F - 32.0 °F 43% 29.72 in 10.0 mi WNW 12.7 mph 18.4 mph N/A   Partly Cloudy
1:53 PM 54.0 °F - 32.0 °F 43% 29.72 in 10.0 mi WNW 13.8 mph 23.0 mph N/A   Partly Cloudy
2:53 PM 54.0 °F - 32.0 °F 43% 29.73 in 10.0 mi WNW 11.5 mph - N/A   Partly Cloudy
3:53 PM 52.0 °F - 32.0 °F 47% 29.76 in 10.0 mi WNW 10.4 mph - N/A   Partly Cloudy
4:53 PM 46.9 °F - 30.9 °F 54% 29.79 in 10.0 mi NNW 8.1 mph - N/A   Scattered Clouds
5:53 PM 42.1 °F 39.2 °F 30.0 °F 62% 29.83 in 10.0 mi North 4.6 mph - N/A   Scattered Clouds
6:53 PM 42.1 °F 39.2 °F 30.0 °F 62% 29.85 in 10.0 mi NNE 4.6 mph - N/A   Scattered Clouds
7:53 PM 42.1 °F 39.2 °F 30.0 °F 62% 29.86 in 10.0 mi ENE 4.6 mph - N/A   Mostly Cloudy
8:53 PM 39.9 °F 36.7 °F 30.0 °F 68% 29.87 in 10.0 mi ENE 4.6 mph - N/A   Scattered Clouds
9:53 PM 42.1 °F 38.4 °F 30.9 °F 65% 29.86 in 10.0 mi East 5.8 mph - N/A   Scattered Clouds
10:53 PM 41.0 °F 38.0 °F 30.9 °F 67% 29.88 in 10.0 mi East 4.6 mph - N/A   Scattered Clouds
11:53 PM 39.9 °F 33.9 °F 30.9 °F 70% 29.89 in 10.0 mi ESE 9.2 mph - N/A   Clear